User: anonymous   Login
Location: *
(38.4303°S, 157.0822°W)
Time: 23:44:53
(UTC+00:00)
Language:

Cosmos 1461 - Orbit

View from above orbital plane
View from above orbital plane
View from above satellite
View from above satellite

Ground track
Ground track

The orbit data is extracted from the following two-line orbital elements,

1 14064U 83044A   24204.29021572  .00017682  00000-0  10679-2 0  9993
2 14064  64.9966 145.8585 0056667  95.5078 265.2513 15.09452304111232
Epoch (UTC): 22 July 2024 06:57:54
Eccentricity: 0.0056667
inclination: 64.9966°
perigee height: 498 km
apogee height: 577 km
right ascension of ascending node: 145.8585°
argument of perigee: 95.5078°
revolutions per day: 15.09452304
mean anomaly at epoch: 265.2513°
orbit number at epoch: 11123

The dashed part of the orbit path shows where the satellite is in the earth's shadow,  

DLR